, AK

(GMT )
Eureka

Weather History for PAZK - October, 2012

Change the Weather History Date:

Friday, October 12, 2012

  Actual Average Record
Temperature  
Mean Temperature 14 °F -  
Max Temperature 21 °F 27 °F 42 °F (2013)
Min Temperature 8 °F 17 °F 8 °F (2012)
Degree Days  
Heating Degree Days 50    
Moisture  
Dew Point 13 °F    
Average Humidity 87    
Maximum Humidity 100    
Minimum Humidity 74    
Precipitation  
Precipitation 0.00 in - - ()
Sea Level Pressure  
Sea Level Pressure 29.27 in    
Wind  
Wind Speed 7 mph (ENE)    
Max Wind Speed 12 mph    
Max Gust Speed 16 mph    
Visibility 9 miles    
Events      
Averages and records for this station are not official NWS values.
T = Trace of Precipitation, MM = Missing Value Source: NWS Daily Summary

Daily Weather History Graph

Daily Weather History Graph

Search for Another Location

Airport or City:

Trip Planner

Search our weather history database for the weather conditions in past years. The results will help you decide how hot, cold, wet, or windy it might be!

Date:

Astronomy

Oct. 12, 2012 Rise Set
Actual Time 8:26 AM AKDT 6:42 PM AKDT
Civil Twilight 7:41 AM AKDT 7:26 PM AKDT
Nautical Twilight 6:50 AM AKDT 8:17 PM AKDT
Astronomical Twilight 5:58 AM AKDT 9:09 PM AKDT
Moon 4:36 AM AKDT (10/12) 5:30 PM AKDT (10/12)
Length of Visible Light 11h 44m
Length of Day
10h 15m
Waning Crescent, 10% of the Moon is Illuminated
Oct 12
Waning Crescent
Oct 15
New
Oct 21
First Quarter
Oct 29
Full
Nov 6
Last Quarter

Hourly Weather History & Observations

Time (AKDT) Temp. Windchill Dew Point Humidity Pressure Visibility Wind Dir Wind Speed Gust Speed Precip Events Conditions
12:16 AM 15.8 °F 7.2 °F 12.2 °F 86% 29.52 in 10.0 mi NE 5.8 mph - N/A   Clear
12:36 AM 15.8 °F 7.2 °F 12.2 °F 86% 29.51 in 10.0 mi NE 5.8 mph - N/A   Clear
12:56 AM 15.8 °F 6.1 °F 12.2 °F 86% 29.51 in 10.0 mi NE 6.9 mph - N/A   Clear
1:16 AM 15.8 °F 7.2 °F 10.4 °F 79% 29.50 in 10.0 mi NE 5.8 mph - N/A   Clear
1:36 AM 17.6 °F 8.2 °F 12.2 °F 79% 29.49 in 10.0 mi NE 6.9 mph - N/A   Clear
1:56 AM 15.8 °F 7.2 °F 12.2 °F 86% 29.48 in 10.0 mi NE 5.8 mph - N/A   Clear
2:16 AM 15.8 °F 5.1 °F 12.2 °F 86% 29.47 in 10.0 mi NE 8.1 mph - N/A   Clear
2:36 AM 17.6 °F 8.2 °F 12.2 °F 79% 29.46 in 10.0 mi NE 6.9 mph - N/A   Clear
2:56 AM 15.8 °F 6.1 °F 10.4 °F 79% 29.45 in 10.0 mi NE 6.9 mph - N/A   Clear
3:16 AM 15.8 °F 6.1 °F 12.2 °F 86% 29.45 in 10.0 mi NE 6.9 mph - N/A   Clear
3:56 AM 12.2 °F 1.7 °F 10.4 °F 92% 29.43 in 10.0 mi NE 6.9 mph - N/A   Clear
4:36 AM 12.2 °F 2.9 °F 10.4 °F 92% 29.41 in 10.0 mi NE 5.8 mph - N/A   Clear
4:56 AM 12.2 °F 2.9 °F 8.6 °F 85% 29.40 in 10.0 mi ENE 5.8 mph - N/A   Clear
5:16 AM 12.2 °F 1.7 °F 10.4 °F 92% 29.39 in 10.0 mi ENE 6.9 mph - N/A   Partly Cloudy
5:36 AM 12.2 °F 2.9 °F 10.4 °F 92% 29.38 in 10.0 mi NE 5.8 mph - N/A   Clear
5:56 AM 12.2 °F 2.9 °F 10.4 °F 92% 29.38 in 10.0 mi NE 5.8 mph - N/A   Partly Cloudy
6:16 AM 15.8 °F 5.1 °F 12.2 °F 86% 29.37 in 10.0 mi NNE 8.1 mph - N/A   Partly Cloudy
6:36 AM 15.8 °F 5.1 °F 12.2 °F 86% 29.36 in 10.0 mi NNE 8.1 mph - N/A   Clear
6:56 AM 15.8 °F 6.1 °F 10.4 °F 79% 29.36 in 10.0 mi NNE 6.9 mph - N/A   Clear
7:16 AM 14.0 °F 2.9 °F 10.4 °F 86% 29.35 in 10.0 mi NNE 8.1 mph - N/A   Clear
7:36 AM 12.2 °F 0.7 °F 10.4 °F 92% 29.35 in 10.0 mi NE 8.1 mph - N/A   Clear
7:56 AM 12.2 °F 0.7 °F 8.6 °F 85% 29.34 in 10.0 mi NE 8.1 mph - N/A   Clear
8:16 AM 12.2 °F 6.1 °F 6.8 °F 79% 29.33 in 10.0 mi East 3.5 mph - N/A   Scattered Clouds
8:36 AM 10.4 °F -0.4 °F 8.6 °F 92% 29.33 in 10.0 mi ENE 6.9 mph - N/A   Partly Cloudy
8:56 AM 8.6 °F -3.7 °F 6.8 °F 92% 29.32 in 10.0 mi ENE 8.1 mph - N/A   Clear
9:16 AM 10.4 °F -0.4 °F 8.6 °F 92% 29.31 in 10.0 mi NE 6.9 mph - N/A   Mostly Cloudy
9:36 AM 10.4 °F -0.4 °F 8.6 °F 92% 29.30 in 7.0 mi NE 6.9 mph - N/A   Overcast
9:56 AM 12.2 °F 0.7 °F 12.2 °F 100% 29.29 in 10.0 mi NE 8.1 mph - N/A   Scattered Clouds
10:36 AM 14.0 °F 2.9 °F 12.2 °F 93% 29.27 in 10.0 mi NE 8.1 mph - N/A   Scattered Clouds
11:16 AM 17.6 °F 6.4 °F 15.8 °F 93% 29.26 in 10.0 mi ENE 9.2 mph - N/A   Scattered Clouds
11:36 AM 17.6 °F 5.0 °F 14.0 °F 86% 29.26 in 10.0 mi ENE 11.5 mph - N/A   Partly Cloudy
11:56 AM 15.8 °F 3.4 °F 15.8 °F 100% 29.25 in 9.0 mi ENE 10.4 mph 16.1 mph N/A   Mostly Cloudy
12:16 PM 15.8 °F 5.1 °F 15.8 °F 100% 29.25 in 10.0 mi ENE 8.1 mph - N/A   Overcast
12:56 PM 15.8 °F 5.1 °F 15.8 °F 100% 29.23 in 1.0 mi East 8.1 mph - N/A   Overcast
1:16 PM 17.6 °F 8.2 °F 15.8 °F 93% 29.23 in 1.0 mi East 6.9 mph - N/A   Overcast
1:36 PM 17.6 °F 7.3 °F 15.8 °F 93% 29.22 in 0.5 mi East 8.1 mph - N/A   Overcast
1:56 PM 17.6 °F 7.3 °F 17.6 °F 100% 29.22 in 1.0 mi ESE 8.1 mph - N/A   Overcast
2:16 PM 17.6 °F 8.2 °F 17.6 °F 100% 29.21 in 1.2 mi East 6.9 mph - N/A   Overcast
2:36 PM 19.4 °F 11.5 °F 17.6 °F 93% 29.20 in 9.0 mi East 5.8 mph - N/A   Mostly Cloudy
2:56 PM 19.4 °F 10.4 °F 17.6 °F 93% 29.20 in 10.0 mi ESE 6.9 mph - N/A   Scattered Clouds
3:16 PM 19.4 °F 10.4 °F 19.4 °F 100% 29.19 in 10.0 mi ESE 6.9 mph - N/A   Partly Cloudy
3:36 PM 19.4 °F 10.4 °F 17.6 °F 93% 29.18 in 10.0 mi East 6.9 mph - N/A   Clear
3:56 PM 21.2 °F 14.9 °F 17.6 °F 86% 29.18 in 10.0 mi ESE 4.6 mph - N/A   Clear
4:16 PM 21.2 °F 13.6 °F 17.6 °F 86% 29.17 in 10.0 mi ESE 5.8 mph - N/A   Clear
4:36 PM 21.2 °F 12.6 °F 15.8 °F 80% 29.17 in 10.0 mi ESE 6.9 mph - N/A   Clear
4:56 PM 21.2 °F 14.9 °F 15.8 °F 80% 29.17 in 10.0 mi ESE 4.6 mph - N/A   Clear
5:16 PM 21.2 °F 14.9 °F 15.8 °F 80% 29.16 in 10.0 mi East 4.6 mph - N/A   Clear
5:36 PM 21.2 °F 14.9 °F 14.0 °F 74% 29.16 in 10.0 mi East 4.6 mph - N/A   Clear
5:56 PM 21.2 °F 14.9 °F 14.0 °F 74% 29.15 in 10.0 mi East 4.6 mph - N/A   Clear
6:16 PM 19.4 °F 10.4 °F 14.0 °F 80% 29.16 in 10.0 mi East 6.9 mph - N/A   Clear
6:36 PM 17.6 °F 8.2 °F 14.0 °F 86% 29.15 in 10.0 mi East 6.9 mph - N/A   Clear
6:56 PM 17.6 °F 8.2 °F 14.0 °F 86% 29.15 in 10.0 mi East 6.9 mph - N/A   Clear
7:16 PM 17.6 °F 8.2 °F 14.0 °F 86% 29.15 in 10.0 mi East 6.9 mph - N/A   Clear
7:36 PM 15.8 °F 7.2 °F 12.2 °F 86% 29.15 in 10.0 mi NE 5.8 mph - N/A   Clear
7:56 PM 15.8 °F 7.2 °F 12.2 °F 86% 29.15 in 10.0 mi NE 5.8 mph - N/A   Clear
8:16 PM 15.8 °F 7.2 °F 12.2 °F 86% 29.15 in 10.0 mi NE 5.8 mph - N/A   Clear
8:36 PM 15.8 °F 7.2 °F 12.2 °F 86% 29.15 in 10.0 mi NE 5.8 mph - N/A   Clear
8:56 PM 15.8 °F 7.2 °F 12.2 °F 86% 29.14 in 10.0 mi NE 5.8 mph - N/A   Clear
9:16 PM 15.8 °F 7.2 °F 12.2 °F 86% 29.15 in 10.0 mi NNE 5.8 mph - N/A   Clear
9:56 PM 15.8 °F 6.1 °F 10.4 °F 79% 29.14 in 10.0 mi NE 6.9 mph - N/A   Clear
10:16 PM 15.8 °F 6.1 °F 12.2 °F 86% 29.15 in 10.0 mi NE 6.9 mph - N/A   Clear
10:36 PM 15.8 °F 6.1 °F 10.4 °F 79% 29.15 in 10.0 mi NE 6.9 mph - N/A   Clear
10:56 PM 14.0 °F 2.9 °F 10.4 °F 86% 29.15 in 10.0 mi NNE 8.1 mph - N/A   Clear
11:16 PM 12.2 °F 0.7 °F 8.6 °F 85% 29.15 in 10.0 mi NNE 8.1 mph - N/A   Clear
11:36 PM 12.2 °F 1.7 °F 8.6 °F 85% 29.15 in 10.0 mi NNE 6.9 mph - N/A   Clear
11:56 PM 12.2 °F 1.7 °F 8.6 °F 85% 29.15 in 10.0 mi NNE 6.9 mph - N/A   Clear